Time,TemperatureF,DewpointF,PressureIn,WindDirection,WindDirectionDegrees,WindSpeedMPH,WindSpeedGustMPH,Humidity,HourlyPrecipIn,Conditions,Clouds,dailyrainin,SoftwareType,DateUTC
2013-03-05 00:00:00,26.8,13.6,30.24,SE,135,9.0,28.0,57,0.00,,---,0.00,VWS V14.01,2013-03-05 06:00:00,
2013-03-05 00:05:00,26.7,13.9,30.24,South,176,14.0,16.0,58,0.00,,---,0.00,VWS V14.01,2013-03-05 06:05:00,
2013-03-05 00:10:00,26.6,14.2,30.24,SSE,151,10.0,22.0,59,0.00,,---,0.00,VWS V14.01,2013-03-05 06:10:00,
2013-03-05 00:15:00,26.5,14.1,30.24,SSE,151,6.0,22.0,59,0.00,,---,0.00,VWS V14.01,2013-03-05 06:15:00,
2013-03-05 00:20:00,26.4,14.0,30.24,SSE,162,7.0,22.0,59,0.00,,---,0.00,VWS V14.01,2013-03-05 06:20:00,
2013-03-05 00:25:00,26.3,13.9,30.24,SSE,149,17.0,22.0,59,0.00,,---,0.00,VWS V14.01,2013-03-05 06:25:00,
2013-03-05 00:30:00,26.2,13.4,30.24,South,177,5.0,22.0,58,0.00,,---,0.00,VWS V14.01,2013-03-05 06:30:00,
2013-03-05 00:35:00,26.0,14.0,30.24,SSE,154,12.0,12.0,60,0.00,,---,0.00,VWS V14.01,2013-03-05 06:35:00,
2013-03-05 00:40:00,25.8,14.2,30.24,South,172,4.0,13.0,61,0.00,,---,0.00,VWS V14.01,2013-03-05 06:40:00,
2013-03-05 00:45:00,25.6,13.7,30.24,SSE,151,12.0,19.0,60,0.00,,---,0.00,VWS V14.01,2013-03-05 06:45:00,
2013-03-05 00:50:00,25.5,13.2,30.25,South,190,4.0,19.0,59,0.00,,---,0.00,VWS V14.01,2013-03-05 06:50:00,
2013-03-05 00:55:00,25.4,13.8,30.25,SE,146,6.0,19.0,61,0.00,,---,0.00,VWS V14.01,2013-03-05 06:55:00,
2013-03-05 01:00:00,25.3,13.4,30.25,SSE,160,10.0,20.0,60,0.00,,---,0.00,VWS V14.01,2013-03-05 07:00:00,
2013-03-05 01:05:00,25.3,13.4,30.25,SSW,192,7.0,16.0,60,0.00,,---,0.00,VWS V14.01,2013-03-05 07:05:00,
2013-03-05 01:10:00,25.2,13.3,30.25,SW,219,6.0,16.0,60,0.00,,---,0.00,VWS V14.01,2013-03-05 07:10:00,
2013-03-05 01:15:00,25.1,13.2,30.25,SSE,153,10.0,16.0,60,0.00,,---,0.00,VWS V14.01,2013-03-05 07:15:00,
2013-03-05 01:20:00,25.1,12.8,30.25,SE,145,13.0,20.0,59,0.00,,---,0.00,VWS V14.01,2013-03-05 07:20:00,
2013-03-05 01:25:00,25.0,12.7,30.25,South,169,12.0,22.0,59,0.00,,---,0.00,VWS V14.01,2013-03-05 07:25:00,
2013-03-05 01:30:00,25.0,12.7,30.25,SSE,165,4.0,22.0,59,0.00,,---,0.00,VWS V14.01,2013-03-05 07:30:00,
2013-03-05 01:35:00,24.8,12.5,30.25,SSW,192,5.0,10.0,59,0.00,,---,0.00,VWS V14.01,2013-03-05 07:35:00,
2013-03-05 01:40:00,24.7,12.8,30.25,SSE,148,5.0,16.0,60,0.00,,---,0.00,VWS V14.01,2013-03-05 07:40:00,
2013-03-05 01:45:00,24.6,13.1,30.25,SSE,162,3.0,16.0,61,0.00,,---,0.00,VWS V14.01,2013-03-05 07:45:00,
2013-03-05 01:50:00,24.4,13.3,30.25,SE,146,7.0,16.0,62,0.00,,---,0.00,VWS V14.01,2013-03-05 07:50:00,
2013-03-05 01:55:00,24.3,13.2,30.26,SSE,162,4.0,16.0,62,0.00,,---,0.00,VWS V14.01,2013-03-05 07:55:00,
2013-03-05 02:00:00,24.1,13.3,30.26,SSE,158,8.0,16.0,63,0.00,,---,0.00,VWS V14.01,2013-03-05 08:00:00,
2013-03-05 02:05:00,24.1,13.3,30.26,SE,143,14.0,17.0,63,0.00,,---,0.00,VWS V14.01,2013-03-05 08:05:00,
2013-03-05 02:10:00,24.2,12.3,30.26,South,176,8.0,21.0,60,0.00,,---,0.00,VWS V14.01,2013-03-05 08:10:00,
2013-03-05 02:15:00,24.2,12.3,30.25,SSW,200,8.0,21.0,60,0.00,,---,0.00,VWS V14.01,2013-03-05 08:15:00,
2013-03-05 02:20:00,24.1,12.2,30.25,SSE,164,4.0,21.0,60,0.00,,---,0.00,VWS V14.01,2013-03-05 08:20:00,
2013-03-05 02:25:00,24.0,12.1,30.25,South,172,6.0,21.0,60,0.00,,---,0.00,VWS V14.01,2013-03-05 08:25:00,
2013-03-05 02:30:00,23.9,12.4,30.25,SE,132,5.0,21.0,61,0.00,,---,0.00,VWS V14.01,2013-03-05 08:30:00,
2013-03-05 02:35:00,23.8,12.3,30.25,South,181,8.0,14.0,61,0.00,,---,0.00,VWS V14.01,2013-03-05 08:35:00,
2013-03-05 02:40:00,23.9,12.4,30.25,South,191,6.0,15.0,61,0.00,,---,0.00,VWS V14.01,2013-03-05 08:40:00,
2013-03-05 02:45:00,23.9,12.1,30.25,South,172,5.0,20.0,60,0.00,,---,0.00,VWS V14.01,2013-03-05 08:45:00,
2013-03-05 02:50:00,23.9,12.1,30.26,SSE,168,9.0,20.0,60,0.00,,---,0.00,VWS V14.01,2013-03-05 08:50:00,
2013-03-05 02:55:00,23.9,12.1,30.26,SSE,166,8.0,20.0,60,0.00,,---,0.00,VWS V14.01,2013-03-05 08:55:00,
2013-03-05 03:00:00,23.9,12.4,30.26,SSE,162,6.0,20.0,61,0.00,,---,0.00,VWS V14.01,2013-03-05 09:00:00,
2013-03-05 03:05:00,23.9,12.4,30.26,SE,146,5.0,11.0,61,0.00,,---,0.00,VWS V14.01,2013-03-05 09:05:00,
2013-03-05 03:10:00,23.8,12.7,30.26,South,184,5.0,14.0,62,0.00,,---,0.00,VWS V14.01,2013-03-05 09:10:00,
2013-03-05 03:15:00,23.8,12.7,30.26,South,180,7.0,14.0,62,0.00,,---,0.00,VWS V14.01,2013-03-05 09:15:00,
2013-03-05 03:20:00,23.9,12.8,30.26,SE,134,12.0,23.0,62,0.00,,---,0.00,VWS V14.01,2013-03-05 09:20:00,
2013-03-05 03:25:00,24.2,12.7,30.26,SSW,199,7.0,26.0,61,0.00,,---,0.00,VWS V14.01,2013-03-05 09:25:00,
2013-03-05 03:30:00,24.2,12.7,30.26,SSW,201,9.0,26.0,61,0.00,,---,0.00,VWS V14.01,2013-03-05 09:30:00,
2013-03-05 03:35:00,24.2,12.7,30.26,South,182,13.0,19.0,61,0.00,,---,0.00,VWS V14.01,2013-03-05 09:35:00,
2013-03-05 03:40:00,24.2,13.1,30.27,SE,139,5.0,19.0,62,0.00,,---,0.00,VWS V14.01,2013-03-05 09:40:00,
2013-03-05 03:45:00,24.0,12.9,30.27,South,179,7.0,22.0,62,0.00,,---,0.00,VWS V14.01,2013-03-05 09:45:00,
2013-03-05 03:50:00,23.9,13.1,30.27,SSE,160,8.0,22.0,63,0.00,,---,0.00,VWS V14.01,2013-03-05 09:50:00,
2013-03-05 03:55:00,23.9,13.5,30.27,SW,225,9.0,22.0,64,0.00,,---,0.00,VWS V14.01,2013-03-05 09:55:00,
2013-03-05 04:00:00,23.8,13.4,30.27,SE,128,8.0,22.0,64,0.00,,---,0.00,VWS V14.01,2013-03-05 10:00:00,
2013-03-05 04:05:00,23.8,13.4,30.27,South,187,4.0,18.0,64,0.00,,---,0.00,VWS V14.01,2013-03-05 10:05:00,
2013-03-05 04:10:00,23.8,13.1,30.27,South,172,11.0,18.0,63,0.00,,---,0.00,VWS V14.01,2013-03-05 10:10:00,
2013-03-05 04:15:00,23.8,13.1,30.27,WSW,244,5.0,19.0,63,0.00,,---,0.00,VWS V14.01,2013-03-05 10:15:00,
2013-03-05 04:20:00,23.7,13.3,30.27,South,169,11.0,19.0,64,0.00,,---,0.00,VWS V14.01,2013-03-05 10:20:00,
2013-03-05 04:25:00,23.6,13.2,30.27,SSE,156,7.0,19.0,64,0.00,,---,0.00,VWS V14.01,2013-03-05 10:25:00,
2013-03-05 04:30:00,23.5,13.5,30.27,South,177,8.0,19.0,65,0.00,,---,0.00,VWS V14.01,2013-03-05 10:30:00,
2013-03-05 04:35:00,23.4,13.7,30.27,SSE,153,4.0,15.0,66,0.00,,---,0.00,VWS V14.01,2013-03-05 10:35:00,
2013-03-05 04:40:00,23.4,14.1,30.28,South,180,8.0,23.0,67,0.00,,---,0.00,VWS V14.01,2013-03-05 10:40:00,
2013-03-05 04:45:00,23.4,14.1,30.28,SSW,200,7.0,23.0,67,0.00,,---,0.00,VWS V14.01,2013-03-05 10:45:00,
2013-03-05 04:50:00,23.4,14.4,30.28,SSE,153,12.0,23.0,68,0.00,,---,0.00,VWS V14.01,2013-03-05 10:50:00,
2013-03-05 04:55:00,23.3,14.3,30.29,SSE,151,7.0,23.0,68,0.00,,---,0.00,VWS V14.01,2013-03-05 10:55:00,
2013-03-05 05:00:00,23.3,14.0,30.29,SSW,192,7.0,23.0,67,0.00,,---,0.00,VWS V14.01,2013-03-05 11:00:00,
2013-03-05 05:05:00,23.4,13.7,30.29,SSW,212,6.0,17.0,66,0.00,,---,0.00,VWS V14.01,2013-03-05 11:05:00,
2013-03-05 05:10:00,23.4,13.7,30.29,ESE,120,11.0,17.0,66,0.00,,---,0.00,VWS V14.01,2013-03-05 11:10:00,
2013-03-05 05:15:00,23.4,13.7,30.29,SSE,149,5.0,18.0,66,0.00,,---,0.00,VWS V14.01,2013-03-05 11:15:00,
2013-03-05 05:20:00,23.3,13.6,30.29,South,185,6.0,18.0,66,0.00,,---,0.00,VWS V14.01,2013-03-05 11:20:00,
2013-03-05 05:25:00,23.3,13.6,30.29,SE,144,8.0,20.0,66,0.00,,---,0.00,VWS V14.01,2013-03-05 11:25:00,
2013-03-05 05:30:00,23.2,13.5,30.29,South,187,12.0,20.0,66,0.00,,---,0.00,VWS V14.01,2013-03-05 11:30:00,
2013-03-05 05:35:00,23.2,13.5,30.30,South,185,6.0,14.0,66,0.00,,---,0.00,VWS V14.01,2013-03-05 11:35:00,
2013-03-05 05:40:00,23.1,13.4,30.30,South,180,2.0,17.0,66,0.00,,---,0.00,VWS V14.01,2013-03-05 11:40:00,
2013-03-05 05:45:00,23.0,13.7,30.31,SSW,205,13.0,17.0,67,0.00,,---,0.00,VWS V14.01,2013-03-05 11:45:00,
2013-03-05 05:50:00,23.0,13.7,30.31,SSE,151,10.0,17.0,67,0.00,,---,0.00,VWS V14.01,2013-03-05 11:50:00,
2013-03-05 05:55:00,23.0,13.7,30.31,SSW,207,10.0,24.0,67,0.00,,---,0.00,VWS V14.01,2013-03-05 11:55:00,
2013-03-05 06:00:00,23.0,13.7,30.31,SSE,149,18.0,24.0,67,0.00,,---,0.00,VWS V14.01,2013-03-05 12:00:00,
2013-03-05 06:04:00,22.8,13.5,30.31,South,172,13.0,18.0,67,0.00,,---,0.00,VWS V14.01,2013-03-05 12:04:00,
2013-03-05 06:09:00,22.8,13.8,30.31,South,175,7.0,18.0,68,0.00,,---,0.00,VWS V14.01,2013-03-05 12:09:00,
2013-03-05 06:14:00,22.7,13.4,30.31,SSE,168,16.0,20.0,67,0.00,,---,0.00,VWS V14.01,2013-03-05 12:14:00,
2013-03-05 06:19:00,22.7,13.4,30.32,SSE,159,8.0,21.0,67,0.00,,---,0.00,VWS V14.01,2013-03-05 12:19:00,
2013-03-05 06:24:00,22.6,13.3,30.32,South,177,12.0,21.0,67,0.00,,---,0.00,VWS V14.01,2013-03-05 12:24:00,
2013-03-05 06:29:00,22.5,13.2,30.32,South,172,5.0,21.0,67,0.00,,---,0.00,VWS V14.01,2013-03-05 12:29:00,
2013-03-05 06:34:00,22.5,13.2,30.32,South,180,9.0,23.0,67,0.00,,---,0.00,VWS V14.01,2013-03-05 12:34:00,
2013-03-05 06:39:00,22.5,13.2,30.33,South,177,7.0,23.0,67,0.00,,---,0.00,VWS V14.01,2013-03-05 12:39:00,
2013-03-05 06:44:00,22.4,13.1,30.33,South,176,11.0,23.0,67,0.00,,---,0.00,VWS V14.01,2013-03-05 12:44:00,
2013-03-05 06:49:00,22.4,13.4,30.33,South,180,11.0,23.0,68,0.00,,---,0.00,VWS V14.01,2013-03-05 12:49:00,
2013-03-05 06:54:00,22.3,13.4,30.33,SE,137,7.0,23.0,68,0.00,,---,0.00,VWS V14.01,2013-03-05 12:54:00,
2013-03-05 06:59:00,22.2,13.6,30.33,SSE,165,5.0,23.0,69,0.00,,---,0.00,VWS V14.01,2013-03-05 12:59:00,
2013-03-05 07:04:00,22.1,13.8,30.34,South,182,13.0,13.0,70,0.00,,---,0.00,VWS V14.01,2013-03-05 13:04:00,
2013-03-05 07:09:00,22.1,13.5,30.34,SE,146,4.0,15.0,69,0.00,,---,0.00,VWS V14.01,2013-03-05 13:09:00,
2013-03-05 07:14:00,22.1,13.5,30.34,SE,143,9.0,17.0,69,0.00,,---,0.00,VWS V14.01,2013-03-05 13:14:00,
2013-03-05 07:19:00,22.1,13.5,30.35,SSW,201,9.0,22.0,69,0.00,,---,0.00,VWS V14.01,2013-03-05 13:19:00,
2013-03-05 07:24:00,22.0,13.4,30.34,ESE,114,10.0,23.0,69,0.00,,---,0.00,VWS V14.01,2013-03-05 13:24:00,
2013-03-05 07:29:00,22.0,13.4,30.34,SSE,153,8.0,23.0,69,0.00,,---,0.00,VWS V14.01,2013-03-05 13:29:00,
2013-03-05 07:34:00,22.0,13.4,30.35,South,176,8.0,14.0,69,0.00,,---,0.00,VWS V14.01,2013-03-05 13:34:00,
2013-03-05 07:39:00,22.1,13.5,30.35,South,186,5.0,16.0,69,0.00,,---,0.00,VWS V14.01,2013-03-05 13:39:00,
2013-03-05 07:44:00,22.2,13.6,30.35,SSE,153,4.0,20.0,69,0.00,,---,0.00,VWS V14.01,2013-03-05 13:44:00,
2013-03-05 07:49:00,22.4,13.8,30.35,South,175,7.0,20.0,69,0.00,,---,0.00,VWS V14.01,2013-03-05 13:49:00,
2013-03-05 07:54:00,22.5,13.9,30.36,South,175,4.0,20.0,69,0.00,,---,0.00,VWS V14.01,2013-03-05 13:54:00,
2013-03-05 07:59:00,22.7,13.7,30.36,SSW,207,5.0,20.0,68,0.00,,---,0.00,VWS V14.01,2013-03-05 13:59:00,
2013-03-05 08:04:00,22.7,13.7,30.35,SW,217,6.0,9.0,68,0.00,,---,0.00,VWS V14.01,2013-03-05 14:04:00,
2013-03-05 08:09:00,22.9,13.9,30.36,South,171,8.0,22.0,68,0.00,,---,0.00,VWS V14.01,2013-03-05 14:09:00,
2013-03-05 08:14:00,23.0,14.0,30.36,South,186,17.0,22.0,68,0.00,,---,0.00,VWS V14.01,2013-03-05 14:14:00,
2013-03-05 08:19:00,23.1,13.8,30.36,South,169,4.0,22.0,67,0.00,,---,0.00,VWS V14.01,2013-03-05 14:19:00,
2013-03-05 08:24:00,23.4,14.1,30.37,SSW,200,7.0,23.0,67,0.00,,---,0.00,VWS V14.01,2013-03-05 14:24:00,
2013-03-05 08:29:00,23.7,14.4,30.37,SSW,213,12.0,23.0,67,0.00,,---,0.00,VWS V14.01,2013-03-05 14:29:00,
2013-03-05 08:34:00,23.8,14.5,30.37,SW,228,15.0,21.0,67,0.00,,---,0.00,VWS V14.01,2013-03-05 14:34:00,
2013-03-05 08:39:00,23.9,14.6,30.38,SSE,166,12.0,21.0,67,0.00,,---,0.00,VWS V14.01,2013-03-05 14:39:00,
2013-03-05 08:44:00,23.8,14.1,30.38,South,180,10.0,24.0,66,0.00,,---,0.00,VWS V14.01,2013-03-05 14:44:00,
2013-03-05 08:49:00,24.0,14.3,30.39,SE,135,21.0,24.0,66,0.00,,---,0.00,VWS V14.01,2013-03-05 14:49:00,
2013-03-05 08:54:00,24.1,14.4,30.39,South,172,9.0,24.0,66,0.00,,---,0.00,VWS V14.01,2013-03-05 14:54:00,
2013-03-05 08:59:00,24.3,14.6,30.39,South,180,14.0,24.0,66,0.00,,---,0.00,VWS V14.01,2013-03-05 14:59:00,
2013-03-05 09:04:00,24.3,14.2,30.39,South,173,9.0,19.0,65,0.00,,---,0.00,VWS V14.01,2013-03-05 15:04:00,
2013-03-05 09:09:00,24.6,14.2,30.39,SSE,168,21.0,25.0,64,0.00,,---,0.00,VWS V14.01,2013-03-05 15:09:00,
2013-03-05 09:14:00,24.4,14.0,30.39,SSW,195,15.0,25.0,64,0.00,,---,0.00,VWS V14.01,2013-03-05 15:14:00,
2013-03-05 09:19:00,24.2,14.1,30.40,South,180,5.0,25.0,65,0.00,,---,0.00,VWS V14.01,2013-03-05 15:19:00,
2013-03-05 09:24:00,24.5,14.4,30.40,SE,127,9.0,25.0,65,0.00,,---,0.00,VWS V14.01,2013-03-05 15:24:00,
2013-03-05 09:29:00,24.5,14.1,30.40,South,170,13.0,25.0,64,0.00,,---,0.00,VWS V14.01,2013-03-05 15:29:00,
2013-03-05 09:34:00,24.7,14.3,30.41,SE,142,16.0,16.0,64,0.00,,---,0.00,VWS V14.01,2013-03-05 15:34:00,
2013-03-05 09:39:00,24.8,14.4,30.41,SSE,160,9.0,19.0,64,0.00,,---,0.00,VWS V14.01,2013-03-05 15:39:00,
2013-03-05 09:44:00,24.8,14.4,30.41,SSE,150,10.0,21.0,64,0.00,,---,0.00,VWS V14.01,2013-03-05 15:44:00,
2013-03-05 09:49:00,24.7,14.3,30.41,SSE,157,11.0,21.0,64,0.00,,---,0.00,VWS V14.01,2013-03-05 15:49:00,
2013-03-05 09:54:00,24.7,14.3,30.41,South,183,15.0,21.0,64,0.00,,---,0.00,VWS V14.01,2013-03-05 15:54:00,
2013-03-05 09:59:00,24.9,14.5,30.42,SSE,168,11.0,21.0,64,0.00,,---,0.00,VWS V14.01,2013-03-05 15:59:00,
2013-03-05 10:04:00,24.8,14.0,30.42,SSW,194,9.0,14.0,63,0.00,,---,0.00,VWS V14.01,2013-03-05 16:04:00,
2013-03-05 10:09:00,25.0,14.6,30.42,South,179,10.0,20.0,64,0.00,,---,0.00,VWS V14.01,2013-03-05 16:09:00,
2013-03-05 10:14:00,25.3,14.8,30.42,SSW,196,7.0,20.0,64,0.00,,---,0.00,VWS V14.01,2013-03-05 16:14:00,
2013-03-05 10:19:00,24.9,14.5,30.42,SSE,150,11.0,20.0,64,0.00,,---,0.00,VWS V14.01,2013-03-05 16:19:00,
2013-03-05 10:24:00,25.0,14.6,30.43,SSW,196,9.0,22.0,64,0.00,,---,0.00,VWS V14.01,2013-03-05 16:24:00,
2013-03-05 10:29:00,25.0,14.6,30.43,SSW,213,13.0,22.0,64,0.00,,---,0.00,VWS V14.01,2013-03-05 16:29:00,
2013-03-05 10:34:00,25.3,14.8,30.43,South,172,14.0,17.0,64,0.00,,---,0.00,VWS V14.01,2013-03-05 16:34:00,
2013-03-05 10:39:00,25.6,14.8,30.43,SSW,209,13.0,21.0,63,0.00,,---,0.00,VWS V14.01,2013-03-05 16:39:00,
2013-03-05 10:44:00,25.9,15.4,30.43,SSE,163,15.0,21.0,64,0.00,,---,0.00,VWS V14.01,2013-03-05 16:44:00,
2013-03-05 10:49:00,26.3,15.4,30.44,South,183,4.0,24.0,63,0.00,,---,0.00,VWS V14.01,2013-03-05 16:49:00,
2013-03-05 10:54:00,26.5,14.9,30.43,South,190,10.0,24.0,61,0.00,,---,0.00,VWS V14.01,2013-03-05 16:54:00,
2013-03-05 10:59:00,26.6,15.0,30.43,South,185,16.0,24.0,61,0.00,,---,0.00,VWS V14.01,2013-03-05 16:59:00,
2013-03-05 11:04:00,26.8,15.2,30.43,SW,224,14.0,14.0,61,0.00,,---,0.00,VWS V14.01,2013-03-05 17:04:00,
2013-03-05 11:09:00,26.7,14.7,30.44,SW,235,10.0,24.0,60,0.00,,---,0.00,VWS V14.01,2013-03-05 17:09:00,
2013-03-05 11:14:00,26.9,15.3,30.44,East,101,6.0,24.0,61,0.00,,---,0.00,VWS V14.01,2013-03-05 17:14:00,
2013-03-05 11:19:00,27.1,15.1,30.44,SSW,197,4.0,24.0,60,0.00,,---,0.00,VWS V14.01,2013-03-05 17:19:00,
2013-03-05 11:24:00,27.5,15.4,30.43,South,175,7.0,24.0,60,0.00,,---,0.00,VWS V14.01,2013-03-05 17:24:00,
2013-03-05 11:29:00,27.9,15.8,30.43,SSW,199,14.0,24.0,60,0.00,,---,0.00,VWS V14.01,2013-03-05 17:29:00,
2013-03-05 11:34:00,27.9,15.4,30.44,SSE,156,10.0,14.0,59,0.00,,---,0.00,VWS V14.01,2013-03-05 17:34:00,
2013-03-05 11:39:00,27.9,15.1,30.44,SW,225,8.0,18.0,58,0.00,,---,0.00,VWS V14.01,2013-03-05 17:39:00,
2013-03-05 11:44:00,27.9,14.6,30.44,SW,215,13.0,23.0,57,0.00,,---,0.00,VWS V14.01,2013-03-05 17:44:00,
2013-03-05 11:49:00,27.9,15.4,30.44,South,187,4.0,25.0,59,0.00,,---,0.00,VWS V14.01,2013-03-05 17:49:00,
2013-03-05 11:54:00,28.6,15.3,30.44,South,173,10.0,25.0,57,0.00,,---,0.00,VWS V14.01,2013-03-05 17:54:00,
2013-03-05 11:59:00,29.0,15.7,30.44,SSW,199,8.0,25.0,57,0.00,,---,0.00,VWS V14.01,2013-03-05 17:59:00,
2013-03-05 12:04:00,29.4,15.7,30.44,SSE,166,6.0,10.0,56,0.00,,---,0.00,VWS V14.01,2013-03-05 18:04:00,
2013-03-05 12:09:00,29.7,15.5,30.44,SSW,199,5.0,21.0,55,0.00,,---,0.00,VWS V14.01,2013-03-05 18:09:00,
2013-03-05 12:14:00,29.7,15.1,30.44,SSW,194,15.0,21.0,54,0.00,,---,0.00,VWS V14.01,2013-03-05 18:14:00,
2013-03-05 12:19:00,29.6,15.4,30.44,SSE,154,6.0,21.0,55,0.00,,---,0.00,VWS V14.01,2013-03-05 18:19:00,
2013-03-05 12:24:00,29.8,15.2,30.44,South,172,8.0,23.0,54,0.00,,---,0.00,VWS V14.01,2013-03-05 18:24:00,
2013-03-05 12:29:00,29.9,15.3,30.44,South,169,9.0,23.0,54,0.00,,---,0.00,VWS V14.01,2013-03-05 18:29:00,
2013-03-05 12:34:00,30.2,16.0,30.45,SSE,168,7.0,11.0,55,0.00,,---,0.00,VWS V14.01,2013-03-05 18:34:00,
2013-03-05 12:39:00,30.7,15.6,30.45,SSE,149,8.0,22.0,53,0.00,,---,0.00,VWS V14.01,2013-03-05 18:39:00,
2013-03-05 12:44:00,30.4,15.3,30.45,South,172,5.0,23.0,53,0.00,,---,0.00,VWS V14.01,2013-03-05 18:44:00,
2013-03-05 12:49:00,30.8,15.3,30.44,South,181,7.0,23.0,52,0.00,,---,0.00,VWS V14.01,2013-03-05 18:49:00,
2013-03-05 12:54:00,31.0,15.0,30.45,SSE,156,15.0,23.0,51,0.00,,---,0.00,VWS V14.01,2013-03-05 18:54:00,
2013-03-05 12:59:00,31.0,15.4,30.44,South,169,16.0,23.0,52,0.00,,---,0.00,VWS V14.01,2013-03-05 18:59:00,
2013-03-05 13:04:00,31.1,14.6,30.44,SSW,197,18.0,18.0,50,0.00,,---,0.00,VWS V14.01,2013-03-05 19:04:00,
2013-03-05 13:09:00,31.2,14.7,30.44,SSE,160,11.0,20.0,50,0.00,,---,0.00,VWS V14.01,2013-03-05 19:09:00,
2013-03-05 13:14:00,31.6,15.1,30.45,SW,217,14.0,21.0,50,0.00,,---,0.00,VWS V14.01,2013-03-05 19:14:00,
2013-03-05 13:19:00,31.5,15.5,30.45,SSE,168,12.0,21.0,51,0.00,,---,0.00,VWS V14.01,2013-03-05 19:19:00,
2013-03-05 13:24:00,32.0,15.9,30.45,SSE,165,6.0,21.0,51,0.00,,---,0.00,VWS V14.01,2013-03-05 19:24:00,
2013-03-05 13:29:00,31.8,14.4,30.45,SSW,201,14.0,21.0,48,0.00,,---,0.00,VWS V14.01,2013-03-05 19:29:00,
2013-03-05 13:34:00,32.1,15.6,30.44,South,170,7.0,12.0,50,0.00,,---,0.00,VWS V14.01,2013-03-05 19:34:00,
2013-03-05 13:39:00,32.6,16.0,30.45,SW,222,4.0,18.0,50,0.00,,---,0.00,VWS V14.01,2013-03-05 19:39:00,
2013-03-05 13:44:00,32.4,14.9,30.45,South,171,11.0,23.0,48,0.00,,---,0.00,VWS V14.01,2013-03-05 19:44:00,
2013-03-05 13:49:00,32.7,15.7,30.45,South,172,10.0,23.0,49,0.00,,---,0.00,VWS V14.01,2013-03-05 19:49:00,
2013-03-05 13:54:00,32.7,15.7,30.45,South,190,6.0,23.0,49,0.00,,---,0.00,VWS V14.01,2013-03-05 19:54:00,
2013-03-05 13:59:00,32.9,15.4,30.45,SSE,158,8.0,23.0,48,0.00,,---,0.00,VWS V14.01,2013-03-05 19:59:00,
2013-03-05 14:04:00,33.3,15.7,30.45,SSW,196,12.0,15.0,48,0.00,,---,0.00,VWS V14.01,2013-03-05 20:04:00,
2013-03-05 14:09:00,33.5,15.4,30.45,SSW,194,11.0,15.0,47,0.00,,---,0.00,VWS V14.01,2013-03-05 20:09:00,
2013-03-05 14:14:00,33.7,15.6,30.45,SSW,208,7.0,19.0,47,0.00,,---,0.00,VWS V14.01,2013-03-05 20:14:00,
2013-03-05 14:19:00,33.9,15.8,30.45,SSW,199,12.0,19.0,47,0.00,,---,0.00,VWS V14.01,2013-03-05 20:19:00,
2013-03-05 14:24:00,33.8,15.2,30.45,SSE,156,8.0,19.0,46,0.00,,---,0.00,VWS V14.01,2013-03-05 20:24:00,
2013-03-05 14:29:00,33.8,15.7,30.45,South,178,11.0,19.0,47,0.00,,---,0.00,VWS V14.01,2013-03-05 20:29:00,
2013-03-05 14:34:00,33.9,15.3,30.45,SSW,200,9.0,15.0,46,0.00,,---,0.00,VWS V14.01,2013-03-05 20:34:00,
2013-03-05 14:39:00,33.8,14.2,30.45,South,184,17.0,23.0,44,0.00,,---,0.00,VWS V14.01,2013-03-05 20:39:00,
2013-03-05 14:44:00,33.8,14.7,30.45,WSW,242,10.0,23.0,45,0.00,,---,0.00,VWS V14.01,2013-03-05 20:44:00,
2013-03-05 14:49:00,34.0,14.9,30.45,South,184,12.0,23.0,45,0.00,,---,0.00,VWS V14.01,2013-03-05 20:49:00,
2013-03-05 14:54:00,34.4,15.3,30.45,SE,146,11.0,23.0,45,0.00,,---,0.00,VWS V14.01,2013-03-05 20:54:00,
2013-03-05 14:59:00,34.4,15.3,30.44,SW,225,5.0,23.0,45,0.00,,---,0.00,VWS V14.01,2013-03-05 20:59:00,
2013-03-05 15:04:00,34.9,15.7,30.44,SSW,199,10.0,19.0,45,0.00,,---,0.00,VWS V14.01,2013-03-05 21:04:00,
2013-03-05 15:09:00,34.7,15.6,30.44,South,177,4.0,21.0,45,0.00,,---,0.00,VWS V14.01,2013-03-05 21:09:00,
2013-03-05 15:14:00,35.0,15.3,30.45,SSE,156,6.0,21.0,44,0.00,,---,0.00,VWS V14.01,2013-03-05 21:14:00,
2013-03-05 15:19:00,35.2,15.5,30.45,South,180,12.0,21.0,44,0.00,,---,0.00,VWS V14.01,2013-03-05 21:19:00,
2013-03-05 15:24:00,35.4,15.7,30.45,South,169,8.0,21.0,44,0.00,,---,0.00,VWS V14.01,2013-03-05 21:24:00,
2013-03-05 15:29:00,35.2,16.0,30.45,South,175,4.0,21.0,45,0.00,,---,0.00,VWS V14.01,2013-03-05 21:29:00,
2013-03-05 15:34:00,35.4,15.1,30.45,SSW,207,8.0,14.0,43,0.00,,---,0.00,VWS V14.01,2013-03-05 21:34:00,
2013-03-05 15:39:00,35.0,14.2,30.45,SSW,204,17.0,22.0,42,0.00,,---,0.00,VWS V14.01,2013-03-05 21:39:00,
2013-03-05 15:44:00,34.8,14.6,30.45,SSW,201,8.0,22.0,43,0.00,,---,0.00,VWS V14.01,2013-03-05 21:44:00,
2013-03-05 15:49:00,35.1,15.4,30.45,SE,142,16.0,22.0,44,0.00,,---,0.00,VWS V14.01,2013-03-05 21:49:00,
2013-03-05 15:54:00,35.3,15.6,30.45,South,187,4.0,22.0,44,0.00,,---,0.00,VWS V14.01,2013-03-05 21:54:00,
2013-03-05 15:59:00,35.0,14.8,30.44,SSW,197,5.0,22.0,43,0.00,,---,0.00,VWS V14.01,2013-03-05 21:59:00,
2013-03-05 16:04:00,34.9,15.2,30.44,South,176,5.0,12.0,44,0.00,,---,0.00,VWS V14.01,2013-03-05 22:04:00,
2013-03-05 16:09:00,35.1,15.4,30.44,SSE,150,9.0,14.0,44,0.00,,---,0.00,VWS V14.01,2013-03-05 22:09:00,
2013-03-05 16:14:00,35.1,15.4,30.45,SW,220,9.0,14.0,44,0.00,,---,0.00,VWS V14.01,2013-03-05 22:14:00,
2013-03-05 16:19:00,35.0,15.3,30.45,SSE,151,5.0,15.0,44,0.00,,---,0.00,VWS V14.01,2013-03-05 22:19:00,
2013-03-05 16:24:00,35.2,16.0,30.45,South,191,6.0,15.0,45,0.00,,---,0.00,VWS V14.01,2013-03-05 22:24:00,
2013-03-05 16:29:00,35.2,15.5,30.46,SSW,193,9.0,15.0,44,0.00,,---,0.00,VWS V14.01,2013-03-05 22:29:00,
2013-03-05 16:34:00,35.0,15.8,30.46,SSW,198,4.0,6.0,45,0.00,,---,0.00,VWS V14.01,2013-03-05 22:34:00,
2013-03-05 16:39:00,34.9,15.7,30.46,South,171,7.0,16.0,45,0.00,,---,0.00,VWS V14.01,2013-03-05 22:39:00,
2013-03-05 16:44:00,34.8,15.1,30.46,SSW,192,10.0,16.0,44,0.00,,---,0.00,VWS V14.01,2013-03-05 22:44:00,
2013-03-05 16:49:00,34.9,15.7,30.47,South,180,5.0,17.0,45,0.00,,---,0.00,VWS V14.01,2013-03-05 22:49:00,
2013-03-05 16:54:00,35.0,15.8,30.47,South,171,6.0,17.0,45,0.00,,---,0.00,VWS V14.01,2013-03-05 22:54:00,
2013-03-05 16:59:00,34.9,15.7,30.47,SSW,205,4.0,17.0,45,0.00,,---,0.00,VWS V14.01,2013-03-05 22:59:00,
2013-03-05 17:04:00,35.0,16.3,30.47,SSW,193,9.0,14.0,46,0.00,,---,0.00,VWS V14.01,2013-03-05 23:04:00,
2013-03-05 17:09:00,34.9,16.2,30.46,South,187,5.0,14.0,46,0.00,,---,0.00,VWS V14.01,2013-03-05 23:09:00,
2013-03-05 17:14:00,34.9,16.2,30.47,South,186,8.0,15.0,46,0.00,,---,0.00,VWS V14.01,2013-03-05 23:14:00,
2013-03-05 17:19:00,34.9,15.7,30.47,South,189,8.0,15.0,45,0.00,,---,0.00,VWS V14.01,2013-03-05 23:19:00,
2013-03-05 17:24:00,34.8,16.6,30.47,South,180,3.0,15.0,47,0.00,,---,0.00,VWS V14.01,2013-03-05 23:24:00,
2013-03-05 17:29:00,34.8,16.1,30.48,SSE,165,5.0,16.0,46,0.00,,---,0.00,VWS V14.01,2013-03-05 23:29:00,
2013-03-05 17:34:00,34.7,16.0,30.48,SSW,203,7.0,9.0,46,0.00,,---,0.00,VWS V14.01,2013-03-05 23:34:00,
2013-03-05 17:39:00,34.6,16.5,30.48,South,184,9.0,12.0,47,0.00,,---,0.00,VWS V14.01,2013-03-05 23:39:00,
2013-03-05 17:44:00,34.3,16.2,30.48,SW,234,4.0,12.0,47,0.00,,---,0.00,VWS V14.01,2013-03-05 23:44:00,
2013-03-05 17:49:00,33.9,15.8,30.49,South,169,8.0,14.0,47,0.00,,---,0.00,VWS V14.01,2013-03-05 23:49:00,
2013-03-05 17:54:00,33.6,16.0,30.48,South,173,5.0,14.0,48,0.00,,---,0.00,VWS V14.01,2013-03-05 23:54:00,
2013-03-05 17:59:00,33.5,15.9,30.48,WSW,258,7.0,14.0,48,0.00,,---,0.00,VWS V14.01,2013-03-05 23:59:00,
2013-03-05 18:04:00,33.4,16.8,30.49,SSE,154,3.0,8.0,50,0.00,,---,0.00,VWS V14.01,2013-03-06 00:04:00,
2013-03-05 18:09:00,33.2,16.1,30.49,SSW,203,4.0,11.0,49,0.00,,---,0.00,VWS V14.01,2013-03-06 00:09:00,
2013-03-05 18:14:00,33.0,16.4,30.49,SSE,162,6.0,11.0,50,0.00,,---,0.00,VWS V14.01,2013-03-06 00:14:00,
2013-03-05 18:19:00,32.8,16.2,30.49,SW,214,6.0,11.0,50,0.00,,---,0.00,VWS V14.01,2013-03-06 00:19:00,
2013-03-05 18:24:00,32.5,16.4,30.49,South,171,3.0,11.0,51,0.00,,---,0.00,VWS V14.01,2013-03-06 00:24:00,
2013-03-05 18:29:00,32.3,16.7,30.49,SW,225,6.0,11.0,52,0.00,,---,0.00,VWS V14.01,2013-03-06 00:29:00,
2013-03-05 18:34:00,32.0,16.4,30.49,SW,218,4.0,9.0,52,0.00,,---,0.00,VWS V14.01,2013-03-06 00:34:00,
2013-03-05 18:39:00,31.8,16.6,30.49,SSW,201,3.0,9.0,53,0.00,,---,0.00,VWS V14.01,2013-03-06 00:39:00,
2013-03-05 18:44:00,31.5,16.8,30.49,SSW,195,4.0,9.0,54,0.00,,---,0.00,VWS V14.01,2013-03-06 00:44:00,
2013-03-05 18:49:00,31.2,16.9,30.49,South,177,3.0,9.0,55,0.00,,---,0.00,VWS V14.01,2013-03-06 00:49:00,
2013-03-05 18:54:00,30.9,17.1,30.49,South,177,3.0,9.0,56,0.00,,---,0.00,VWS V14.01,2013-03-06 00:54:00,
2013-03-05 18:59:00,30.8,17.0,30.50,South,191,5.0,9.0,56,0.00,,---,0.00,VWS V14.01,2013-03-06 00:59:00,
2013-03-05 19:04:00,30.6,16.8,30.50,South,180,4.0,4.0,56,0.00,,---,0.00,VWS V14.01,2013-03-06 01:04:00,
2013-03-05 19:09:00,30.5,17.1,30.50,SSW,194,5.0,6.0,57,0.00,,---,0.00,VWS V14.01,2013-03-06 01:09:00,
2013-03-05 19:14:00,30.3,16.9,30.50,South,169,2.0,6.0,57,0.00,,---,0.00,VWS V14.01,2013-03-06 01:14:00,
2013-03-05 19:19:00,30.1,17.1,30.50,South,175,4.0,7.0,58,0.00,,---,0.00,VWS V14.01,2013-03-06 01:19:00,
2013-03-05 19:24:00,29.9,17.3,30.50,South,184,2.0,7.0,59,0.00,,---,0.00,VWS V14.01,2013-03-06 01:24:00,
2013-03-05 19:29:00,29.7,17.1,30.50,South,182,1.0,7.0,59,0.00,,---,0.00,VWS V14.01,2013-03-06 01:29:00,
2013-03-05 19:34:00,29.4,17.2,30.50,SW,215,2.0,3.0,60,0.00,,---,0.00,VWS V14.01,2013-03-06 01:34:00,
2013-03-05 19:39:00,29.1,17.3,30.50,SSW,196,2.0,5.0,61,0.00,,---,0.00,VWS V14.01,2013-03-06 01:39:00,
2013-03-05 19:44:00,28.8,17.4,30.50,SSW,208,3.0,5.0,62,0.00,,---,0.00,VWS V14.01,2013-03-06 01:44:00,
2013-03-05 19:49:00,28.7,17.7,30.51,South,180,2.0,5.0,63,0.00,,---,0.00,VWS V14.01,2013-03-06 01:49:00,
2013-03-05 19:54:00,28.5,17.5,30.51,SSW,196,3.0,5.0,63,0.00,,---,0.00,VWS V14.01,2013-03-06 01:54:00,
2013-03-05 19:59:00,28.3,17.7,30.51,South,191,3.0,5.0,64,0.00,,---,0.00,VWS V14.01,2013-03-06 01:59:00,
2013-03-05 20:04:00,28.2,17.6,30.51,SSW,199,3.0,4.0,64,0.00,,---,0.00,VWS V14.01,2013-03-06 02:04:00,
2013-03-05 20:09:00,28.0,17.4,30.51,South,187,4.0,5.0,64,0.00,,---,0.00,VWS V14.01,2013-03-06 02:09:00,
2013-03-05 20:14:00,27.9,17.7,30.51,SW,214,4.0,6.0,65,0.00,,---,0.00,VWS V14.01,2013-03-06 02:14:00,
2013-03-05 20:19:00,27.7,17.5,30.51,South,184,2.0,6.0,65,0.00,,---,0.00,VWS V14.01,2013-03-06 02:19:00,
2013-03-05 20:24:00,27.6,17.4,30.51,SSW,210,3.0,6.0,65,0.00,,---,0.00,VWS V14.01,2013-03-06 02:24:00,
2013-03-05 20:29:00,27.5,17.3,30.51,SSW,194,5.0,6.0,65,0.00,,---,0.00,VWS V14.01,2013-03-06 02:29:00,
2013-03-05 20:34:00,27.3,17.5,30.51,South,173,2.0,5.0,66,0.00,,---,0.00,VWS V14.01,2013-03-06 02:34:00,
2013-03-05 20:39:00,27.1,17.3,30.51,SSE,165,1.0,5.0,66,0.00,,---,0.00,VWS V14.01,2013-03-06 02:39:00,
2013-03-05 20:44:00,27.0,17.5,30.52,South,176,2.0,6.0,67,0.00,,---,0.00,VWS V14.01,2013-03-06 02:44:00,
2013-03-05 20:49:00,26.9,17.4,30.52,SSW,206,3.0,6.0,67,0.00,,---,0.00,VWS V14.01,2013-03-06 02:49:00,
2013-03-05 20:54:00,26.7,17.6,30.52,South,188,1.0,6.0,68,0.00,,---,0.00,VWS V14.01,2013-03-06 02:54:00,
2013-03-05 20:59:00,26.5,17.4,30.52,South,183,2.0,6.0,68,0.00,,---,0.00,VWS V14.01,2013-03-06 02:59:00,
2013-03-05 21:04:00,26.4,17.3,30.52,South,176,3.0,3.0,68,0.00,,---,0.00,VWS V14.01,2013-03-06 03:04:00,
2013-03-05 21:09:00,26.3,17.5,30.52,South,187,2.0,3.0,69,0.00,,---,0.00,VWS V14.01,2013-03-06 03:09:00,
2013-03-05 21:14:00,26.2,17.4,30.52,South,184,2.0,5.0,69,0.00,,---,0.00,VWS V14.01,2013-03-06 03:14:00,
2013-03-05 21:19:00,26.0,17.2,30.53,South,172,1.0,5.0,69,0.00,,---,0.00,VWS V14.01,2013-03-06 03:19:00,
2013-03-05 21:24:00,25.9,17.1,30.53,SSE,166,1.0,5.0,69,0.00,,---,0.00,VWS V14.01,2013-03-06 03:24:00,
2013-03-05 21:29:00,25.7,17.3,30.52,South,187,3.0,5.0,70,0.00,,---,0.00,VWS V14.01,2013-03-06 03:29:00,
2013-03-05 21:34:00,25.5,17.1,30.53,SSW,196,2.0,2.0,70,0.00,,---,0.00,VWS V14.01,2013-03-06 03:34:00,
2013-03-05 21:39:00,25.3,17.2,30.53,South,178,2.0,3.0,71,0.00,,---,0.00,VWS V14.01,2013-03-06 03:39:00,
2013-03-05 21:44:00,25.2,17.1,30.53,SSW,211,2.0,3.0,71,0.00,,---,0.00,VWS V14.01,2013-03-06 03:44:00,
2013-03-05 21:49:00,25.0,17.3,30.54,South,180,2.0,3.0,72,0.00,,---,0.00,VWS V14.01,2013-03-06 03:49:00,
2013-03-05 21:54:00,24.9,17.2,30.54,SSW,192,1.0,4.0,72,0.00,,---,0.00,VWS V14.01,2013-03-06 03:54:00,
2013-03-05 21:59:00,24.8,17.1,30.54,South,189,1.0,4.0,72,0.00,,---,0.00,VWS V14.01,2013-03-06 03:59:00,
2013-03-05 22:04:00,24.6,16.9,30.54,South,180,1.0,2.0,72,0.00,,---,0.00,VWS V14.01,2013-03-06 04:04:00,
2013-03-05 22:09:00,24.5,17.1,30.54,South,180,2.0,3.0,73,0.00,,---,0.00,VWS V14.01,2013-03-06 04:09:00,
2013-03-05 22:14:00,24.3,16.9,30.54,South,176,1.0,3.0,73,0.00,,---,0.00,VWS V14.01,2013-03-06 04:14:00,
2013-03-05 22:19:00,24.1,16.7,30.54,South,175,1.0,3.0,73,0.00,,---,0.00,VWS V14.01,2013-03-06 04:19:00,
2013-03-05 22:24:00,24.0,16.9,30.55,South,173,1.0,3.0,74,0.00,,---,0.00,VWS V14.01,2013-03-06 04:24:00,
2013-03-05 22:29:00,23.9,16.8,30.55,South,173,0.0,3.0,74,0.00,,---,0.00,VWS V14.01,2013-03-06 04:29:00,
2013-03-05 22:34:00,23.8,16.7,30.55,South,172,1.0,2.0,74,0.00,,---,0.00,VWS V14.01,2013-03-06 04:34:00,
2013-03-05 22:39:00,23.7,16.6,30.55,South,172,1.0,2.0,74,0.00,,---,0.00,VWS V14.01,2013-03-06 04:39:00,
2013-03-05 22:44:00,23.6,16.5,30.55,South,183,1.0,2.0,74,0.00,,---,0.00,VWS V14.01,2013-03-06 04:44:00,
2013-03-05 22:49:00,23.5,16.8,30.56,South,180,1.0,3.0,75,0.00,,---,0.00,VWS V14.01,2013-03-06 04:49:00,
2013-03-05 22:54:00,23.4,16.7,30.56,South,180,0.0,3.0,75,0.00,,---,0.00,VWS V14.01,2013-03-06 04:54:00,
2013-03-05 22:59:00,23.2,16.5,30.56,South,179,0.0,3.0,75,0.00,,---,0.00,VWS V14.01,2013-03-06 04:59:00,
2013-03-05 23:00:00,23.2,16.8,30.56,South,180,0.0,3.0,76,0.00,,---,0.00,VWS V14.01,2013-03-06 05:00:00,
2013-03-05 23:05:00,23.0,16.6,30.55,South,180,0.0,0.0,76,0.00,,---,0.00,VWS V14.01,2013-03-06 05:05:00,
2013-03-05 23:10:00,22.9,16.5,30.55,South,179,0.0,1.0,76,0.00,,---,0.00,VWS V14.01,2013-03-06 05:10:00,
2013-03-05 23:15:00,22.7,16.3,30.55,South,179,0.0,1.0,76,0.00,,---,0.00,VWS V14.01,2013-03-06 05:15:00,
2013-03-05 23:20:00,22.4,16.3,30.55,South,172,0.0,1.0,77,0.00,,---,0.00,VWS V14.01,2013-03-06 05:20:00,
2013-03-05 23:25:00,22.4,16.3,30.55,South,172,0.0,1.0,77,0.00,,---,0.00,VWS V14.01,2013-03-06 05:25:00,
2013-03-05 23:30:00,22.4,16.3,30.56,South,172,0.0,1.0,77,0.00,,---,0.00,VWS V14.01,2013-03-06 05:30:00,
2013-03-05 23:35:00,22.3,16.2,30.55,South,172,0.0,1.0,77,0.00,,---,0.00,VWS V14.01,2013-03-06 05:35:00,
2013-03-05 23:40:00,22.2,16.1,30.56,South,172,0.0,1.0,77,0.00,,---,0.00,VWS V14.01,2013-03-06 05:40:00,
2013-03-05 23:45:00,22.1,16.3,30.56,SSE,163,0.0,1.0,78,0.00,,---,0.00,VWS V14.01,2013-03-06 05:45:00,
2013-03-05 23:50:00,22.0,16.2,30.56,SSE,164,0.0,1.0,78,0.00,,---,0.00,VWS V14.01,2013-03-06 05:50:00,
2013-03-05 23:55:00,22.0,16.5,30.55,SSE,168,1.0,2.0,79,0.00,,---,0.00,VWS V14.01,2013-03-06 05:55:00,